Regional Weather Roundup
Issued by NWS

Home | Current Version | Previous Version | Text Only | Print | Product List | Glossary On
Versions: 1 2 3 4 5 6 7 8 9 10 11 12 13 14 15 16 17 18 19 20 21 22 23 24 25 26 27 28 29 30 31 32 33 34 35 36 37 38 39 40 41 42 43 44 45 46 47 48 49 50
000
ASUS42 KKEY 090610
RWRKEY

FLORIDA REGIONAL WEATHER ROUNDUP FOR THE FLORIDA KEYS
NATIONAL WEATHER SERVICE KEY WEST FLORIDA
100 AM EST TUE FEB 09 2016

...SOUTH FLORIDA AND THE KEYS...

CITY           SKY/WX    TMP DP  RH WIND       PRES   REMARKS
FORT MYERS     CLOUDY    64  57  78 W13       29.94F
SW REGIONAL AP MOCLDY    65  57  75 W13       29.95S
NAPLES         MOCLDY    65  60  84 W9        29.96F
MIAMI          CLOUDY    62  55  77 SW9       29.98F
WEST KENDALL   MOCLDY    59  56  89 SW8       29.99F
HOMESTEAD      CLOUDY    60  56  88 S7        29.99F
MARATHON       CLEAR     67  56  67 W9G21     30.02F
BOCA CHICA NAS CLEAR     68  54  60 W16       30.03F
KEY WEST INTL  CLEAR     69  56  62 W14       30.03F

...INTERNATIONAL WEATHER...

CITY           SKY/WX    TMP DP  RH WIND       PRES   REMARKS
NASSAU BAHAMAS PTCLDY    68  55  64 SW7       30.03F
CANCUN MEXICO  PTCLDY    55  54  94 CALM      30.19F
COZUMEL MEXICO PTCLDY    63  54  72 N13       30.19F

ADJACENT COASTAL WATERS...

STATION/POSITION TIME  SKY/WX   TEMP    WIND        PRES    WAVE
                                AIR SEA DIR/SP/G            HT/PER
                 (UTC)          (F)     (DEG/KT/KT) (MB)    (FT/S)
PULASKI SHOAL LI NOT AVBL
SAND KEY         0550            71     270/ 24/ 28 1017.2F
SOMBRERO KEY     NOT AVBL
LONG KEY         0500            65 65  250/ 12/ 13 1017.4F
MOLASSES REEF    0600            68 74  250/ 23/ 26 1015.5F
FOWEY ROCKS      NOT AVBL

$$



USA.gov is the U.S. government's official web portal to all federal, state and local government web resources and services.